Regional Weather Roundup
Issued by NWS

Home | Current Version | Previous Version | Graphics & Text | Print | Product List | Glossary On
Versions: 1 2 3 4 5 6 7 8 9 10 11 12 13 14 15 16 17 18 19 20 21 22 23 24 25 26 27 28 29 30 31 32 33 34 35 36 37 38 39 40 41 42 43 44 45 46 47 48 49 50
000
ASUS44 KMEG 240410
RWRTN
TENNESSEE HOURLY STATE WEATHER ROUNDUP
NATIONAL WEATHER SERVICE MEMPHIS TN
1100 PM CDT WED APR 23 2014

TNZ002-004-019-021-049-052-054-088>092-240500-
WEST TENNESSEE

CITY           SKY/WX    TMP DP  RH WIND       PRES   REMARKS
MEMPHIS INTL   PTCLDY    66  38  35 E10       29.93F
NWS MEMPHIS      N/A     63 N/A N/A MISG        N/A
JACKSON        CLEAR     56  39  53 E6        29.97S
DYERSBURG      CLEAR     59  36  41 E5        29.97F
UNION CITY     CLEAR     55  37  50 E5        29.96F
PARIS          CLEAR     52  36  54 E5        29.99F
LEXINGTON      CLEAR     57  36  44 CALM      29.98R
$$

TNZ008-025-027-028-033-062-065-066-240500-
NORTH MIDDLE TENNESSEE

CITY           SKY/WX    TMP DP  RH WIND       PRES   REMARKS
NASHVILLE      CLEAR     56  36  47 NE5       30.01F
DICKSON        CLEAR     55  32  41 E3        30.00F
PORTLAND       MOCLDY    52  34  50 E6        30.02S
CLARKSVILLE    CLEAR     54  35  48 E3        30.01F
SMYRNA         CLEAR     48  40  74 CALM      30.02F
MURFREESBORO   CLEAR     53  38  56 CALM      30.01S
COOKEVILLE     CLEAR     43  36  75 CALM      30.01F
LIVINGSTON     CLEAR     50  34  54 NE6       30.04
GALLATIN       CLEAR     54  36  50 CALM      30.03S
CROSSVILLE     CLEAR     51  29  42 NE3       30.04S
$$

TNZ061-075-076-078-094-096-097-240500-
SOUTH MIDDLE TENNESSEE

CITY           SKY/WX    TMP DP  RH WIND       PRES   REMARKS
LEWISBURG      CLEAR     44  40  86 CALM      30.00F
FAYETTEVILLE   CLEAR     53  35  50 NE9       29.99F
TULLAHOMA      CLEAR     54  34  47 NE3       30.01F
WINCHESTER     CLEAR     45  39  81 CALM      30.01S
MCMINNVILLE    CLEAR     48  37  66 NE3       30.02S
COLUMBIA       CLEAR     48  46  93 CALM      29.98F
SHELBYVILLE    CLEAR     50  41  71 CALM      30.01F
$$

TNZ017-018-042-046-047-240500-
NORTHEAST TENNESSEE

CITY           SKY/WX    TMP DP  RH WIND       PRES   REMARKS
TRI CITIES     CLEAR     45  28  51 CALM      30.05R
ELIZABETHTON   CLEAR     41  32  70 CALM      30.05R
$$

TNZ012-013-036-069-073-074-240500-
CENTRAL EAST TENNESSEE

CITY           SKY/WX    TMP DP  RH WIND       PRES   REMARKS
KNOXVILLE      CLEAR     53  32  44 E3        30.02R
OAK RIDGE      CLEAR     54  33  45 CALM      30.04R
$$

TNZ083-085-099-240500-
SOUTHEAST TENNESSEE

CITY           SKY/WX    TMP DP  RH WIND       PRES   REMARKS
CHATTANOOGA    CLEAR     55  43  63 N5        30.00R
$$

SKY/WX REPORTED AS FAIR MEANS FEW OR NO CLOUDS BELOW
12 THOUSAND FEET.




USA.gov is the U.S. government's official web portal to all federal, state and local government web resources and services.